Wetterstation Vordersexau
Wetterdaten: Woche 15.10.18 - 21.10.18 (KW42)
Datum Zeit Temp. A. Feuchte A. Luftdruck Regen Wind Richtung Taupunkt Windchill Windben
15.10.2018 00:00 10,2 C 74 % 1009,7 hPa 0,0 l/m 0,0 km/h O-NO 5,8 C 10,2 C 0,0 km/h
15.10.2018 01:00 9,5 C 75 % 1010,1 hPa 0,0 l/m 0,0 km/h O-NO 5,3 C 9,5 C 0,0 km/h
15.10.2018 02:00 8,8 C 77 % 1010,4 hPa 0,0 l/m 0,0 km/h O-NO 5,0 C 8,8 C 0,0 km/h
15.10.2018 03:00 10,2 C 75 % 1010,0 hPa 0,0 l/m 0,0 km/h O-NO 6,0 C 10,2 C 0,0 km/h
15.10.2018 04:00 9,9 C 75 % 1009,9 hPa 0,0 l/m 0,0 km/h O 5,7 C 9,9 C 0,0 km/h
15.10.2018 05:00 9,2 C 76 % 1010,2 hPa 0,0 l/m 0,0 km/h O-NO 5,2 C 9,2 C 0,0 km/h
15.10.2018 06:00 9,4 C 76 % 1010,3 hPa 0,0 l/m 0,0 km/h O-NO 5,4 C 9,4 C 0,0 km/h
15.10.2018 07:00 8,8 C 77 % 1011,0 hPa 0,0 l/m 0,0 km/h O-NO 5,0 C 8,8 C 0,0 km/h
15.10.2018 08:00 9,9 C 80 % 1011,0 hPa 0,0 l/m 0,0 km/h N 6,6 C 9,9 C 0,0 km/h
15.10.2018 09:00 14,1 C 68 % 1011,5 hPa 0,0 l/m 0,0 km/h NW 8,3 C 14,1 C 0,0 km/h
15.10.2018 10:00 16,6 C 63 % 1011,3 hPa 0,0 l/m 0,0 km/h W 9,5 C 16,6 C 0,0 km/h
15.10.2018 11:00 18,6 C 59 % 1011,1 hPa 0,0 l/m 0,0 km/h N-NW 10,4 C 18,6 C 0,0 km/h
15.10.2018 12:00 20,4 C 56 % 1010,7 hPa 0,0 l/m 0,0 km/h W-SW 11,3 C 20,4 C 0,0 km/h
15.10.2018 13:00 22,6 C 51 % 1010,0 hPa 0,0 l/m 0,0 km/h NW 11,9 C 22,6 C 0,0 km/h
15.10.2018 14:00 24,5 C 44 % 1009,5 hPa 0,0 l/m 0,0 km/h NW 11,4 C 24,5 C 0,0 km/h
15.10.2018 15:00 25,0 C 43 % 1009,3 hPa 0,0 l/m 0,0 km/h W-NW 11,5 C 25,0 C 0,0 km/h
15.10.2018 16:00 24,4 C 44 % 1009,6 hPa 0,0 l/m 0,0 km/h W 11,3 C 24,4 C 0,0 km/h
15.10.2018 17:00 23,4 C 47 % 1010,0 hPa 0,0 l/m 0,0 km/h S-SW 11,4 C 23,4 C 0,0 km/h
15.10.2018 18:00 20,2 C 53 % 1010,5 hPa 0,0 l/m 0,0 km/h S 10,3 C 20,2 C 0,0 km/h
15.10.2018 19:00 16,4 C 64 % 1011,1 hPa 0,0 l/m 0,0 km/h O-SO 9,6 C 16,4 C 0,0 km/h
15.10.2018 20:00 14,9 C 67 % 1011,5 hPa 0,0 l/m 0,0 km/h - - 8,8 C 14,9 C 0,0 km/h
Min-Datum _ 15.10.18 15.10.18 15.10.18 - 15.10.18 - 15.10.18 15.10.18 15.10.18
_ Min-Zeit 02:53 15:53 15:53 - 00:53 - 02:53 02:53 00:53
Minimum _ 8,8 C 43 % 1009,3 hPa - 0,0 km/h - 5,0 C 8,8 C 0,0 km/h
Max-Datum _ 15.10.18 15.10.18 15.10.18 15.10.18 15.10.18 - 15.10.18 15.10.18 15.10.18
_ Max-Zeit 15:53 08:53 09:53 00:53 00:53 - 13:53 15:53 00:53
Maximum _ 25,0 C 80 % 1011,5 hPa 0,0 l/m 0,0 km/h
O-NO
- 11,9 C 25,0 C 0,0 km/h
O-NO
Durchschnitt _ 15,6 C 64 % 1010,4 hPa #0,0 l/m 0,0 km/h O-NO 8,4 C 15,6 C 0,0 km/h
www.sexauwetter.de